Content
SEND FEEDBACK

Daily
Averages
Monthly
Summary
United States of America

ROSENBERG, TEXAS


Home > North America > United States > Texas
Elevation: 94 feet     Latitude: 29 31N     Longitude: 095 46W

WEATHER
 
SELECT A DAY
Number of Records: 126,856;   Date Range: 5/12/09 - 8/20/14
 
SHARE

PRINT THIS DATA

[ ← Previous Day ]
WEATHER ALMANAC - JANUARY 31, 2013
[ Next Day → ]
[ °C ]   °F
Weather ElementAverageHighLow
Temperature49.5 °F67.5 °F (2:35 pm)32 °F (2:15 am)
Dewpoint30 °F38.1 °F (8:35 am)21.4 °F (12:55 pm)
Humidity56.5 %99 % (2:35 am)18 % (12:55 pm)
Barometer30.28 in30.34 in (10:15 am)30.23 in (4:15 am)
Wind Speed3.6 mph11.5 mph (4:15 pm)
Wind Gust18.4 mph (4:55 pm)
Weather ElementAverage
Visibility10 mi
Wind DirectionESE (117 °)

Weather ElementTotal
Precipitation---
Heating Degree Days15.3 (Base 65)
Averaged from 69 records on January 31, 2013
WEATHER CONDITIONS BREAKOUT
WIND DIRECTION BREAKOUT
WEATHER BY HOUR - JANUARY 31, 2013
[ °C ]   °F
Local TimeTemperatureDewpointHumidityBarometerVisibilityWind DirectionWind SpeedGust SpeedPrecipitationEventsConditions
12:35 AM33.4 °F31.6 °F93 %30.26 in10.0 miCalmClear
12:55 AM34.2 °F33.1 °F96 %30.24 in10.0 miCalmClear
1:15 AM35.1 °F32.7 °F91 %30.25 in10.0 miCalmClear
1:35 AM35.4 °F33.1 °F91 %30.24 in10.0 miCalmClear
1:55 AM34.0 °F32.2 °F93 %30.24 in10.0 miCalmClear
2:15 AM32.0 °F31.5 °F98 %30.24 in10.0 miCalmClear
2:35 AM32.0 °F31.8 °F99 %30.24 in10.0 miCalmClear
2:55 AM33.6 °F32.9 °F97 %30.25 in10.0 miCalmClear
3:15 AM32.9 °F32.5 °F99 %30.24 in10.0 miCalmClear
3:35 AM34.3 °F33.3 °F96 %30.24 in10.0 miCalmClear
3:55 AM35.8 °F31.8 °F86 %30.24 in10.0 miCalmClear
4:15 AM34.2 °F31.3 °F89 %30.23 in10.0 miCalmClear
4:35 AM33.1 °F31.1 °F92 %30.23 in10.0 miCalmClear
4:55 AM32.9 °F32.0 °F96 %30.23 in10.0 miCalmClear
5:15 AM32.4 °F31.6 °F97 %30.23 in10.0 miCalmClear
5:35 AM32.9 °F32.5 °F99 %30.24 in10.0 miCalmClear
6:15 AM32.9 °F32.2 °F97 %30.25 in10.0 miCalmClear
6:35 AM32.2 °F32.0 °F99 %30.25 in10.0 miCalmClear
6:55 AM32.0 °F31.8 °F99 %30.26 in10.0 miCalmClear
7:15 AM32.0 °F31.8 °F99 %30.27 in10.0 miCalmClear
7:55 AM33.4 °F33.3 °F99 %30.30 in10.0 miCalmClear
8:15 AM38.1 °F37.0 °F96 %30.31 in10.0 miCalmClear
8:35 AM44.8 °F38.1 °F77 %30.31 in10.0 miCalmClear
8:55 AM50.2 °F36.5 °F59 %30.32 in10.0 miCalmClear
9:15 AM53.4 °F34.7 °F49 %30.32 in10.0 miSSW (200°)3.5 mphClear
9:35 AM55.9 °F32.0 °F40 %30.32 in10.0 miSSW (200°)5.8 mphClear
9:55 AM57.2 °F30.4 °F36 %30.33 in10.0 miSSW (210°)6.9 mphClear
10:15 AM58.5 °F29.7 °F33 %30.34 in10.0 miSSW (210°)8.1 mphClear
10:35 AM59.7 °F28.8 °F31 %30.33 in10.0 miSSW (210°)5.8 mphClear
10:55 AM60.4 °F26.1 °F27 %30.33 in10.0 miWSW (250°)5.8 mphClear
11:15 AM61.5 °F24.3 °F24 %30.32 in10.0 miWest (260°)8.1 mphClear
11:35 AM62.4 °F25.7 °F25 %30.32 in10.0 miWSW (250°)6.9 mphClear
11:55 AM63.5 °F24.4 °F23 %30.32 in10.0 miWSW (250°)6.9 mphClear
12:15 PM64.6 °F24.8 °F22 %30.31 in10.0 miWest (260°)8.1 mphClear
12:35 PM64.4 °F23.5 °F21 %30.30 in10.0 miWest (260°)3.5 mphClear
12:55 PM65.7 °F21.4 °F18 %30.29 in10.0 miSSW (200°)4.6 mphClear
1:15 PM66.2 °F25.0 °F21 %30.28 in10.0 miWest (270°)4.6 mphClear
1:35 PM66.0 °F26.6 °F23 %30.27 in10.0 miSW (220°)6.9 mphClear
1:55 PM66.9 °F23.2 °F19 %30.26 in10.0 miSW (220°)5.8 mphClear
2:15 PM66.7 °F25.7 °F21 %30.25 in10.0 miWest (260°)5.8 mphClear
2:35 PM67.5 °F25.5 °F21 %30.24 in10.0 miSW (230°)4.6 mphClear
2:55 PM66.0 °F24.4 °F21 %30.24 in10.0 miSouth (180°)8.1 mphClear
3:15 PM66.9 °F22.6 °F19 %30.23 in10.0 miWSW (240°)9.2 mphClear
3:35 PM67.3 °F26.6 °F22 %30.23 in10.0 miSSW (210°)8.1 mphClear
3:55 PM65.5 °F25.7 °F22 %30.23 in10.0 miSouth (190°)5.8 mphClear
4:15 PM66.9 °F26.6 °F22 %30.24 in10.0 miSouth (180°)11.5 mph17.3 mphClear
4:35 PM65.3 °F28.0 °F25 %30.24 in10.0 miSSW (210°)10.4 mph17.3 mphClear
4:55 PM63.5 °F27.5 °F26 %30.24 in10.0 miSSW (210°)9.2 mph18.4 mphClear
5:15 PM61.5 °F27.9 °F28 %30.25 in10.0 miSSW (210°)11.5 mphClear
5:35 PM60.3 °F27.5 °F29 %30.25 in10.0 miSSW (200°)9.2 mphClear
5:55 PM59.2 °F25.2 °F27 %30.25 in10.0 miSSW (200°)8.1 mphClear
6:15 PM57.4 °F25.2 °F29 %30.25 in10.0 miSouth (190°)8.1 mphClear
6:35 PM55.9 °F27.7 °F34 %30.25 in10.0 miSouth (190°)6.9 mphClear
6:55 PM54.9 °F28.8 °F37 %30.24 in10.0 miSouth (190°)6.9 mphClear
7:15 PM54.5 °F28.6 °F37 %30.26 in10.0 miSouth (190°)6.9 mphClear
7:35 PM53.8 °F29.1 °F39 %30.28 in10.0 miSouth (190°)5.8 mphClear
7:55 PM52.3 °F30.7 °F44 %30.29 in10.0 miSouth (180°)4.6 mphClear
8:15 PM51.3 °F31.5 °F47 %30.30 in10.0 miSSW (200°)3.5 mphClear
8:35 PM50.0 °F32.0 °F50 %30.31 in10.0 miSSW (200°)3.5 mphClear
8:55 PM48.6 °F32.0 °F53 %30.31 in10.0 miSouth (190°)4.6 mphClear
9:15 PM47.3 °F32.7 °F57 %30.31 in10.0 miSSW (200°)3.5 mphClear
9:35 PM46.8 °F32.7 °F58 %30.31 in10.0 miSSE (160°)3.5 mphClear
9:55 PM45.5 °F33.3 °F62 %30.32 in10.0 miCalmClear
10:15 PM46.0 °F33.4 °F61 %30.33 in10.0 miCalmClear
10:35 PM43.0 °F33.3 °F69 %30.32 in10.0 miCalmClear
10:55 PM40.8 °F33.3 °F74 %30.32 in10.0 miCalmClear
11:15 PM43.5 °F34.2 °F70 %30.32 in10.0 miCalmClear
11:35 PM42.3 °F34.3 °F74 %30.32 in10.0 miCalmClear
11:55 PM42.4 °F34.7 °F74 %30.32 in10.0 miCalmClear
Hourly data recorded from KAXH, located miles away from Rosenberg, Texas







STORIES FROM OUR PARTNERS